Location: ?????????
(41.2393°N, 22.9479°E)
Time: 05:30:47
(UTC+00:00)

Helios 1A Rocket - Pass Details

Date: 17 November 2025
Orbit: 439 x 451 km, 98.3° (Epoch: 09 December)

Event Time Altitude Azimuth Distance (km) Brightness Sun altitude
Exits shadow 16:16:32 22° 61° (ENE) 1,020 3.6 -13.1°
Maximum altitude 16:17:46 28° 98° (E) 860 3.3 -13.3°
Drops below altitude 10° 16:20:44 10° 160° (SSE) 1,570 5.1 -13.9°
Sets 16:22:56 0° 172° (S) 2,440 6.2 -14.3°
